Kuchera_Ratio
0.0 0.0 0.0 0.0 0.0 0.0 0.0 0.0 0.0 0.0 0.0 0.0 0.0 0.0 0.0 0.0 0.0 0.0 0.0 0.0 0.0 0.0 0.0 0.0 0.0 0.0 0.0 0.0 0.0 0.0 0.0 0.0 0.0 0.0 0.0 0.0 0.0 0.0 0.0 0.0 0.0 0.0 0.0
0.0 0.0 0.0 0.0 0.0 0.0 0.0 0.0 0.0 0.0 0.0 0.0 0.0 0.0 0.0 0.0 0.0 0.0 0.0 0.0 0.0 0.0 0.0 0.0 0.0 0.0 0.0 0.0 0.0 0.0 0.0 0.0 0.0 0.0 0.0 0.0 0.0 0.0 0.0 0.0 0.0 0.0 0.0
0.0 0.0 0.0 0.0 0.0 0.0 0.0 0.0 0.0 0.0 0.0 0.0 0.0 0.0 0.0 0.0 0.0 0.0 0.0 0.0 0.0 0.0 0.0 0.0 0.0 0.0 0.0 0.0 0.0 0.0 0.0 0.0 0.0 0.0 0.0 0.0 0.0 0.0 0.0 0.0 0.0 0.0 0.0
0.0 0.0 0.0 0.0 0.0 0.0 0.0 0.0 0.0 0.0 0.0 0.0 0.0 0.0 0.0 0.0 0.0 0.0 0.0 0.0 0.0 0.0 0.0 0.0 0.0 0.0 0.0 0.0 0.0 0.0 0.0 0.0 0.0 0.0 0.0 0.0 0.0 0.0 0.0 0.0 0.0 0.0 0.0
0.0 0.0 0.0 0.0 0.0 0.0 0.0 0.0 0.0 0.0 0.0 0.0 0.0 0.0 0.0 0.0 0.0 0.0 0.0 0.0 0.0 0.0 0.0 0.0 0.0 0.0 0.0 0.0 0.0 0.0 0.0 0.0 0.0 0.0 0.0 0.0 0.0 0.0 0.0 0.0 0.0 0.0 0.0
0.0 0.0 0.0 0.0 0.0 0.0 0.0 0.0 0.0 0.0 0.0 0.0 0.0 0.0 0.0 0.0 0.0 0.0 0.0 0.0 0.0 0.0 0.0 0.0 0.0 0.0 0.0 0.0 0.0 0.0 0.0 0.0 0.0 0.0 0.0 0.0 0.0 0.0 0.0 0.0 0.0 0.0 0.0
0.0 0.0 0.0 0.0 0.0 0.0 0.0 0.0 0.0 0.0 0.0 0.0 0.0 0.0 0.0 0.0 0.0 0.0 0.0 0.0 0.0 0.0 0.0 0.0 0.0 0.0 0.0 0.0 0.0 0.0 0.0 0.0 0.0 0.0 0.0 0.0 0.0 0.0 0.0 0.0 0.0 0.0 0.0
0.0 0.0 0.0 0.0 0.0 0.0 0.0 0.0 0.0 0.0 0.0 0.0 0.0 0.0 0.0 0.0 0.0 0.0 0.0 0.0 0.0 0.0 0.0 0.0 0.0 0.0 0.0 0.0 0.0 0.0 0.0 0.0 0.0 0.0 0.0 0.0 0.0 0.0 0.0 0.0 0.0 0.0 0.0
0.0 0.0 0.0 0.0 0.0 0.0 0.0 0.0 0.0 0.0 0.0 0.0 0.0 0.0 0.0 0.0 0.0 0.0 0.0 0.0 0.0 0.0 0.0 0.0 0.0 0.0 0.0 0.0 0.0 0.0 0.0 0.0 0.0 0.0 0.0 0.0 0.0 0.0 0.0 0.0 0.0 0.0 2.7
0.0 0.0 0.0 0.0 0.0 0.0 0.0 0.0 0.0 0.0 0.0 0.0 0.0 0.0 0.0 0.0 0.0 0.0 0.0 0.0 0.0 0.0 0.0 0.0 0.0 0.0 0.0 0.0 0.0 0.0 0.0 0.0 0.0 0.0 0.0 0.0 0.0 0.0 0.0 0.0 0.0 0.0 0.0
0.0 0.0 0.0 0.0 0.0 0.0 0.0 0.0 0.0 0.0 0.0 0.0 0.0 0.0 0.0 0.0 0.0 0.0 0.0 0.0 0.0 0.0 0.0 0.0 0.0 0.0 0.0 0.0 0.0 0.0 0.0 0.0 0.0 0.0 0.0 0.0 0.0 0.0 0.0 0.0 0.0 0.0 0.0
0.0 0.0 0.0 0.0 0.0 0.0 0.0 0.0 0.0 0.0 0.0 0.0 0.0 0.0 0.0 0.0 0.0 0.0 0.0 0.0 0.0 0.0 0.0 0.0 0.0 0.0 0.0 0.0 0.0 0.0 0.0 0.0 0.0 0.0 0.0 0.0 0.0 0.0 0.0 0.0 0.0 0.0 0.0
0.0 0.0 0.0 0.0 0.0 0.0 0.0 0.0 0.0 0.0 0.0 0.0 0.0 0.0 0.0 0.0 0.0 0.0 0.0 0.0 0.0 0.0 0.0 0.0 0.0 0.0 0.0 0.0 0.0 0.0 0.0 0.0 0.0 0.0 0.0 0.0 0.0 0.0 0.0 0.0 0.0 0.0 0.0
0.0 0.0 0.0 0.0 0.0 0.0 0.0 0.0 0.0 0.0 0.0 0.0 0.0 0.0 0.0 0.0 0.0 0.0 0.0 0.0 0.0 0.0 0.0 0.0 0.0 0.0 0.0 0.0 0.0 0.0 0.0 0.0 0.0 0.0 0.0 0.0 0.2 0.7 0.8 0.5 0.2 0.3 1.0
0.0 0.0 0.0 0.0 0.0 0.0 0.0 0.0 0.0 0.0 0.0 0.0 0.0 0.0 0.0 0.0 0.0 0.0 0.0 0.0 0.0 0.0 0.0 0.0 0.0 0.0 0.0 0.0 0.0 0.0 0.0 0.0 0.1 0.0 0.0 0.0 0.0 0.0 0.0 0.0 0.7 1.1 2.3
0.0 0.0 0.0 0.0 0.0 0.0 0.0 0.1 0.0 0.0 0.0 0.0 0.0 0.0 0.0 0.0 0.0 0.0 0.0 0.0 0.0 0.0 0.0 0.0 0.0 0.0 0.0 0.0 0.0 0.0 0.6 0.8 1.1 1.4 0.8 0.7 0.0 0.0 0.0 0.0 0.0 0.0 1.7
0.0 0.0 0.0 0.7 1.1 1.3 0.8 0.8 0.3 0.0 0.0 0.0 0.3 0.1 0.0 0.0 0.1 0.0 0.0 0.2 0.7 0.6 1.0 1.2 1.4 1.6 1.4 0.0 0.0 0.0 1.9 1.9 1.9 2.1 2.2 2.4 0.0 0.2 2.0 0.0 0.0 0.0 0.0
0.0 0.4 1.1 2.1 1.9 1.0 0.6 0.9 0.7 0.4 0.7 1.4 1.6 0.9 0.7 1.3 1.2 1.1 1.6 1.6 1.9 2.2 2.6 2.7 2.9 3.1 2.7 0.0 0.0 0.0 3.0 2.9 2.9 3.5 3.6 3.6 2.9 2.2 2.2 3.7 3.5 3.3 3.6
0.0 0.0 0.9 1.5 1.5 1.3 1.4 1.2 1.8 1.7 1.9 2.8 2.3 1.8 1.5 2.1 2.4 3.1 3.3 3.4 3.7 3.9 4.3 4.5 4.7 5.1 4.5 0.0 0.0 0.0 4.0 4.8 5.0 4.9 4.7 4.7 5.3 1.0 0.0 2.8 3.7 4.0 4.1
0.0 2.0 2.1 2.2 1.8 2.2 1.4 1.7 3.0 2.8 3.3 2.5 2.3 2.2 2.4 3.0 3.9 4.5 4.8 5.5 5.9 6.1 6.3 6.2 6.1 4.9 6.5 1.3 0.0 0.0 5.5 6.4 6.6 6.4 6.3 1.1 0.2 0.0 0.0 2.7 4.1 8.0 6.0
1.8 2.2 2.9 3.2 2.5 2.6 1.8 3.0 3.7 3.8 2.5 2.1 2.6 3.3 3.8 4.3 5.1 5.8 6.7 7.1 7.4 7.7 8.0 8.4 7.8 7.5 7.8 7.9 0.0 0.0 4.3 7.1 7.5 7.8 7.9 7.5 0.0 0.0 0.0 0.0 5.5 6.2 3.9
4.0 3.9 4.6 5.2 3.9 2.6 2.2 4.3 4.6 3.1 2.6 3.0 3.6 4.3 5.0 3.8 4.8 7.4 8.1 8.5 9.3 10.1 10.4 10.5 9.8 8.9 8.7 3.4 1.4 0.0 0.0 0.0 7.5 8.4 8.1 7.9 0.9 0.0 0.0 0.0 0.0 0.0 0.0
4.1 2.5 4.2 5.2 4.1 2.4 2.1 5.3 5.1 3.4 3.7 4.6 5.6 6.1 6.3 7.2 8.0 9.2 10.0 10.6 10.9 12.1 12.4 12.1 12.0 11.1 9.7 9.9 2.6 0.6 0.0 0.0 3.6 6.7 4.0 0.0 0.0 0.0 2.3 1.5 0.0 0.0 8.6
4.7 3.7 4.9 6.4 7.1 5.0 4.6 5.4 4.5 3.9 5.0 7.0 7.8 7.9 9.0 8.7 9.9 10.2 11.1 12.0 12.3 12.7 11.7 12.1 12.2 12.1 11.6 11.0 10.3 9.2 9.3 4.9 5.4 4.4 7.6 4.3 1.0 1.7 3.2 5.6 7.7 10.1 11.7
4.9 4.4 6.5 8.1 8.7 7.4 6.9 5.2 5.1 5.3 7.5 8.1 8.5 9.9 9.7 11.5 12.0 12.1 12.3 12.5 12.3 12.0 12.2 11.7 11.7 12.5 12.6 10.4 3.5 2.3 4.8 7.7 5.2 2.0 8.6 9.8 11.0 12.1 11.9 11.9 12.2 12.0 12.1
7.3 8.3 8.2 8.6 8.3 7.4 7.7 7.3 6.9 7.4 9.1 9.7 9.5 10.8 12.1 12.6 12.8 13.3 13.1 7.8 4.9 3.5 2.9 2.7 4.5 7.1 3.2 1.7 0.9 0.8 0.6 0.2 0.0 6.3 12.0 12.8 12.9 13.3 12.9 12.8 12.5 12.4 11.0